Regional Weather Roundup
Issued by NWS

Home | Current Version | Previous Version | Graphics & Text | Print | Product List | Glossary On
Versions: 1 2 3 4 5 6 7 8 9 10 11 12 13 14 15 16 17 18 19 20 21 22 23 24 25 26 27
000
ASUS45 KCYS 240810
RWRWY

WYOMING REGIONAL WEATHER ROUNDUP
NATIONAL WEATHER SERVICE CHEYENNE WY
100 AM MST SAT FEB 24 2018

NOTE:  "FAIR" INDICATES FEW OR NO CLOUDS BELOW 12,000 FEET
WITH NO SIGNIFICANT WEATHER AND/OR OBSTRUCTIONS TO VISIBILITY.

WYZ001-240900-
YELLOWSTONE NATIONAL PARK

CITY           SKY/WX    TMP DP  RH WIND       PRES   REMARKS
LK YELLOWSTONE   N/A     -4  -9  79 CALM      29.84F
W YELLOWSTONE  NOT AVBL

$$
WYZ002>013-054>058-071-098>099-240900-
NORTHERN WYOMING

CITY           SKY/WX    TMP DP  RH WIND       PRES   REMARKS
JACKSON        MOCLDY     4  -1  80 SW10      29.94F WCI -11
CODY           FAIR      20   1  43 VRB6G24   29.80F WCI  12
GREYBULL       FAIR     -10 -12  91 CALM      29.88F
WORLAND        FAIR      -7  -9  91 CALM      29.86F
SHERIDAN       FAIR      -3  -7  82 S7        29.79F WCI -16
BUFFALO        FAIR      18  -2  41 S3        29.75F
GILLETTE       CLOUDY    17  12  80 S18       29.78F WCI   1
HULETT         CLOUDY    27  14  59 SW7       29.83S WCI  19
NEWCASTLE      FLURRIES  21  10  63 SW5       29.87F WCI  15

$$
WYZ014>020-022>026-101>103-240900-
CENTRAL WYOMING

CITY           SKY/WX    TMP DP  RH WIND       PRES   REMARKS
BIG PINEY      FAIR      -4 -10  75 NW9       29.91F WCI -20
PINEDALE       FAIR      -8 -11  84 NW7       29.91S WCI -22
DUBOIS           N/A    N/A N/A N/A MISG        N/A
LANDER         FAIR       3   0  87 NW3       29.84F
RIVERTON       FAIR       2  -4  76 SW9       29.84F WCI -13
CASPER         FAIR      13  11  92 SW16      29.82F WCI  -3
DOUGLAS        FAIR       7   5  91 N7        29.83F WCI  -5

$$
WYZ021-027>030-104>119-240900-
SOUTHERN WYOMING

CITY           SKY/WX    TMP DP  RH WIND       PRES   REMARKS
EVANSTON       FAIR       1  -2  87 SW12      29.98F WCI -16
FORT BRIDGER   FAIR       8   3  78 W15G22    29.99  WCI  -9
ROCK SPRINGS   FAIR       9   2  73 W20       29.93R WCI -10
DIXON          LGT SNOW  15  13  89 SW7       29.94F VSB 1   WCI   6
RAWLINS        MOCLDY    11   7  84 W21G28    29.84F WCI  -8
SARATOGA       CLOUDY    16   9  73 W13       29.85S WCI   2
LARAMIE        FAIR      13   9  84 W9        29.76S WCI   1
CHEYENNE       CLOUDY    20  20 100 S9        29.81S FOG     WCI   9
TORRINGTON     LGT SNOW  20  19  96 SE9       29.87F VSB 3/4 WCI   9
PINE BLUFFS    CLOUDY    21  21 100 SE8       29.85F WCI  12

$$




USA.gov is the U.S. government's official web portal to all federal, state and local government web resources and services.